Retour au catalogue

FENGYUN 1C DEB

ActifPO
NORAD 33679·DEBRIS·🇨🇳 China

Lancé May 10, 1999 depuis Taiyuan Satellite Launch Center

Loading…

Prochains Passages (prochaines 24 heures)

TLE

FraisSource: Space-Track

Époque: Sep 14, 2026, 14:14 UTC

1 33679U 99025DFQ 26257.59316686  .00032738  00000-0  13360-2 0  9997
2 33679  99.3464  29.8594 0109959 118.1113 243.1282 15.18891750982894

Suivez FENGYUN 1C DEB en temps réel avec AllMySat

Download on the App Store